This is the latest recevied weather packets stored in our database for station/object K0APR. If no packets are shown the sender has not sent any weather packets the latest 1 day(s).
| Time | Temp. | Humidity | Pressure | Rain* | Wind** | Luminosity | Snow |
|---|---|---|---|---|---|---|---|
| 1778027843 | 7.78° C | 45% | 1013 hPa | 0 mm | 6.71 m/s, 333° | 39 W/m² | - |
| 1778027540 | 8.33° C | 44% | 1012.7 hPa | 0 mm | 6.71 m/s, 344° | 44 W/m² | - |
| 1778027235 | 8.33° C | 44% | 1012.7 hPa | 0 mm | 5.36 m/s, 335° | 46 W/m² | - |
| 1778026932 | 7.78° C | 44% | 1012.7 hPa | 0 mm | 4.02 m/s, 320° | 46 W/m² | - |
| 1778026628 | 8.33° C | 43% | 1012.7 hPa | 0 mm | 5.81 m/s, 316° | 49 W/m² | - |
| 1778026325 | 8.33° C | 44% | 1013 hPa | 0 mm | 4.92 m/s, 332° | 57 W/m² | - |
| 1778026022 | 8.33° C | 43% | 1012.7 hPa | 0 mm | 6.26 m/s, 344° | 66 W/m² | - |
| 1778025720 | 8.33° C | 42% | 1012.7 hPa | 0 mm | 5.81 m/s, 347° | 72 W/m² | - |
| 1778025417 | 8.33° C | 42% | 1012.7 hPa | 0 mm | 7.15 m/s, 324° | 66 W/m² | - |
| 1778025115 | 8.33° C | 42% | 1012.7 hPa | 0 mm | 7.6 m/s, 324° | 67 W/m² | - |
| 1778024811 | 8.89° C | 42% | 1012.7 hPa | 0 mm | 7.15 m/s, 340° | 83 W/m² | - |
| 1778024508 | 8.33° C | 42% | 1012.7 hPa | 0 mm | 7.6 m/s, 341° | 86 W/m² | - |
| 1778024205 | 8.33° C | 41% | 1012.7 hPa | 0 mm | 5.36 m/s, 322° | 92 W/m² | - |
| 1778023903 | 8.33° C | 42% | 1012.7 hPa | 0 mm | 6.26 m/s, 309° | 94 W/m² | - |
| 1778023600 | 8.33° C | 42% | 1012.7 hPa | 0 mm | 5.36 m/s, 330° | 89 W/m² | - |
| 1778023297 | 8.33° C | 43% | 1012.3 hPa | 0 mm | 4.47 m/s, 328° | 99 W/m² | - |
| 1778022994 | 8.89° C | 42% | 1012.7 hPa | 0 mm | 4.47 m/s, 343° | 94 W/m² | - |
| 1778022693 | 8.89° C | 42% | 1012.3 hPa | 0 mm | 6.71 m/s, 339° | 101 W/m² | - |
| 1778022391 | 8.89° C | 41% | 1012.7 hPa | 0 mm | 5.81 m/s, 4° | 103 W/m² | - |
| 1778022086 | 8.89° C | 42% | 1012.7 hPa | 0 mm | 4.92 m/s, 322° | 106 W/m² | - |
| 1778021783 | 8.89° C | 41% | 1012.3 hPa | 0 mm | 5.81 m/s, 321° | 114 W/m² | - |
| 1778021479 | 8.89° C | 42% | 1012.3 hPa | 0 mm | 5.81 m/s, 322° | 105 W/m² | - |
| 1778021176 | 8.89° C | 42% | 1012.3 hPa | 0 mm | 8.49 m/s, 330° | 148 W/m² | - |
| 1778020874 | 8.89° C | 42% | 1012.3 hPa | 0 mm | 5.36 m/s, 328° | 163 W/m² | - |
| 1778020571 | 8.89° C | 41% | 1012 hPa | 0 mm | 6.26 m/s, 340° | 136 W/m² | - |
* Rain latest hour (hover to see other rain measurements)
** Current wind speed in m/s (hover to see current wind gust speed)